OCN62G EDDF-LGMK

Flight info

Callsign OCN62G
Flight time 2h 26m
Altitude 37000
Route CINDY8S CINDY Z74 LAMPU DCT NOMBO Y161 MAH DCT VAVOR DCT RADIZ DCT GORPA DCT EVTON DCT SOLGU/N0431F390 DCT AKIKA DCT MAVAR DCT BITLA UN137 AGAPU
Aircraft A320/M-SDE2E3FGIJ1LORWXYZ/HB1

Departure

Time 2026-05-05 12:56
Airport Frankfurt Main Airport (EDDF)

Arrival

Time 2026-05-05 15:22
Airport Mykonos Island National Airport (LGMK)
Time Latitude Longitude Altitude Speed Heading
2026-05-05 12:33 50.03836 8.54699 353 ft 0 kts 159°
2026-05-05 12:50 50.03835 8.54699 349 ft 1 kts 159°
2026-05-05 12:50 50.03824 8.54706 356 ft 3 kts 159°
2026-05-05 12:51 50.03786 8.54728 352 ft 8 kts 159°
2026-05-05 12:51 50.03754 8.54711 355 ft 8 kts 228°
2026-05-05 12:51 50.03729 8.54616 352 ft 11 kts 249°
2026-05-05 12:51 50.03698 8.54484 346 ft 16 kts 250°
2026-05-05 12:52 50.03657 8.54312 349 ft 18 kts 249°
2026-05-05 12:52 50.03611 8.54121 347 ft 20 kts 250°
2026-05-05 12:52 50.03561 8.53909 339 ft 22 kts 249°
2026-05-05 12:52 50.03505 8.53678 336 ft 24 kts 250°
2026-05-05 12:53 50.03453 8.53461 336 ft 22 kts 250°
2026-05-05 12:53 50.03398 8.53234 333 ft 23 kts 249°
2026-05-05 12:53 50.03339 8.52989 334 ft 25 kts 251°
2026-05-05 12:53 50.03288 8.52769 332 ft 20 kts 249°
2026-05-05 12:54 50.03155 8.52595 333 ft 0 kts 180°
2026-05-05 12:55 50.03147 8.52595 334 ft 7 kts 180°
2026-05-05 12:55 50.02844 8.52596 335 ft 81 kts 179°
2026-05-05 12:55 50.02069 8.52605 331 ft 140 kts 180°
2026-05-05 12:55 50.00957 8.52590 539 ft 169 kts 181°
2026-05-05 12:56 49.99771 8.52592 1275 ft 170 kts 181°
2026-05-05 12:56 49.98570 8.52601 1900 ft 180 kts 180°
2026-05-05 12:56 49.97259 8.52869 2232 ft 203 kts 158°
2026-05-05 12:56 49.96078 8.54239 2568 ft 225 kts 127°
2026-05-05 12:57 49.95264 8.56387 3275 ft 233 kts 120°
2026-05-05 12:57 49.94480 8.58592 4180 ft 235 kts 117°
2026-05-05 12:57 49.94016 8.61049 4949 ft 247 kts 97°
2026-05-05 12:57 49.93891 8.63839 5420 ft 268 kts 95°
2026-05-05 12:58 49.93721 8.66755 6277 ft 274 kts 104°
2026-05-05 12:58 49.93031 8.69505 7125 ft 276 kts 123°
2026-05-05 12:58 49.91780 8.71743 8000 ft 277 kts 143°
2026-05-05 12:58 49.90210 8.73493 8906 ft 279 kts 146°
2026-05-05 12:59 49.88713 8.75421 9794 ft 283 kts 134°
2026-05-05 12:59 49.87513 8.77948 10276 ft 303 kts 121°
2026-05-05 12:59 49.86440 8.80904 10621 ft 324 kts 120°
2026-05-05 13:00 49.84204 8.87128 12064 ft 335 kts 120°
2026-05-05 13:00 49.83064 8.90299 12841 ft 339 kts 121°
2026-05-05 13:01 49.79543 9.00025 14939 ft 350 kts 121°
2026-05-05 13:01 49.78354 9.03280 15609 ft 354 kts 121°
2026-05-05 13:01 49.77136 9.06606 16274 ft 357 kts 122°
2026-05-05 13:01 49.76098 9.10126 16916 ft 364 kts 111°
2026-05-05 13:02 49.75443 9.13946 17542 ft 370 kts 107°
2026-05-05 13:02 49.74599 9.17697 18164 ft 370 kts 118°
2026-05-05 13:02 49.73300 9.21117 18718 ft 369 kts 129°
2026-05-05 13:02 49.71651 9.24160 19298 ft 370 kts 134°
2026-05-05 13:03 49.69946 9.27161 19878 ft 373 kts 134°
2026-05-05 13:03 49.68231 9.30179 20446 ft 375 kts 134°
2026-05-05 13:03 49.66504 9.33214 21001 ft 378 kts 134°
2026-05-05 13:03 49.64764 9.36271 21547 ft 380 kts 134°
2026-05-05 13:04 49.63008 9.39341 22071 ft 382 kts 136°
2026-05-05 13:04 49.61029 9.42066 22579 ft 382 kts 146°
2026-05-05 13:04 49.58780 9.44255 23102 ft 383 kts 151°
2026-05-05 13:04 49.56476 9.46349 23585 ft 386 kts 151°
2026-05-05 13:05 49.54154 9.48465 23957 ft 389 kts 151°
2026-05-05 13:05 49.51818 9.50594 24375 ft 392 kts 151°
2026-05-05 13:05 49.49470 9.52737 24829 ft 393 kts 151°
2026-05-05 13:05 49.47110 9.54894 25259 ft 395 kts 151°
2026-05-05 13:06 49.44744 9.57054 25692 ft 396 kts 151°
2026-05-05 13:06 49.42370 9.59219 26116 ft 398 kts 152°
2026-05-05 13:06 49.39981 9.61394 26537 ft 400 kts 152°
2026-05-05 13:06 49.37585 9.63570 26955 ft 401 kts 152°
2026-05-05 13:07 49.35183 9.65772 27354 ft 404 kts 149°
2026-05-05 13:07 49.32957 9.68424 27769 ft 408 kts 140°
2026-05-05 13:07 49.30935 9.71496 28204 ft 410 kts 138°
2026-05-05 13:07 49.28917 9.74588 28623 ft 411 kts 138°
2026-05-05 13:08 49.26890 9.77689 29043 ft 413 kts 138°
2026-05-05 13:08 49.24850 9.80801 29399 ft 415 kts 139°
2026-05-05 13:08 49.22800 9.83925 29705 ft 418 kts 139°
2026-05-05 13:08 49.20730 9.87071 30015 ft 420 kts 139°
2026-05-05 13:09 49.18649 9.90223 30295 ft 422 kts 139°
2026-05-05 13:09 49.16585 9.93345 30570 ft 424 kts 139°
2026-05-05 13:09 49.14459 9.96564 30844 ft 426 kts 139°
2026-05-05 13:09 49.12351 9.99751 31116 ft 427 kts 139°
2026-05-05 13:10 49.10239 10.02943 31401 ft 428 kts 139°
2026-05-05 13:10 49.08120 10.06140 31788 ft 427 kts 139°
2026-05-05 13:10 49.06038 10.09275 32201 ft 426 kts 140°
2026-05-05 13:10 49.03908 10.12398 32600 ft 424 kts 141°
2026-05-05 13:11 49.01758 10.15461 32987 ft 423 kts 141°
2026-05-05 13:11 48.99597 10.18489 33313 ft 422 kts 142°
2026-05-05 13:11 48.97429 10.21504 33659 ft 422 kts 142°
2026-05-05 13:11 48.95261 10.24520 33995 ft 422 kts 142°
2026-05-05 13:12 48.93102 10.27539 34287 ft 422 kts 142°
2026-05-05 13:12 48.90945 10.30574 34555 ft 422 kts 141°
2026-05-05 13:12 48.88793 10.33613 34812 ft 423 kts 141°
2026-05-05 13:12 48.86635 10.36660 35064 ft 424 kts 141°
2026-05-05 13:13 48.84476 10.39702 35311 ft 424 kts 141°
2026-05-05 13:13 48.82319 10.42762 35544 ft 425 kts 140°
2026-05-05 13:13 48.80220 10.45939 35765 ft 427 kts 138°
2026-05-05 13:13 48.78176 10.49209 35995 ft 428 kts 137°
2026-05-05 13:14 48.76154 10.52535 36176 ft 429 kts 137°
2026-05-05 13:14 48.74138 10.55868 36368 ft 430 kts 137°
2026-05-05 13:14 48.72106 10.59202 36571 ft 431 kts 137°
2026-05-05 13:14 48.70055 10.62518 36769 ft 431 kts 137°
2026-05-05 13:15 48.65929 10.69080 36831 ft 430 kts 138°
2026-05-05 13:15 48.61802 10.75601 36827 ft 429 kts 138°
2026-05-05 13:16 48.57675 10.82120 36818 ft 429 kts 137°
2026-05-05 13:16 48.53570 10.88673 36802 ft 430 kts 137°
2026-05-05 13:17 48.49458 10.95258 36813 ft 432 kts 137°
2026-05-05 13:17 48.45313 11.01814 36813 ft 432 kts 138°
2026-05-05 13:18 48.41103 11.08349 36814 ft 432 kts 138°
2026-05-05 13:18 48.36941 11.14774 36815 ft 432 kts 138°
2026-05-05 13:19 48.32762 11.21253 36813 ft 432 kts 138°
2026-05-05 13:19 48.28580 11.27736 36805 ft 432 kts 138°
2026-05-05 13:20 48.24895 11.34923 36810 ft 440 kts 124°
2026-05-05 13:20 48.21833 11.42877 36810 ft 441 kts 124°
2026-05-05 13:21 48.18761 11.50834 36812 ft 441 kts 124°
2026-05-05 13:21 48.15672 11.58787 36808 ft 442 kts 124°
2026-05-05 13:22 48.12575 11.66730 36778 ft 442 kts 124°
2026-05-05 13:22 48.09468 11.74676 36780 ft 443 kts 124°
2026-05-05 13:23 48.06363 11.82624 36781 ft 443 kts 124°
2026-05-05 13:23 48.03247 11.90568 36776 ft 443 kts 124°
2026-05-05 13:24 48.00128 11.98505 36759 ft 443 kts 124°
2026-05-05 13:24 47.96993 12.06435 36765 ft 444 kts 124°
2026-05-05 13:25 47.93718 12.14228 36761 ft 441 kts 132°
2026-05-05 13:25 47.89379 12.20522 36769 ft 434 kts 144°
2026-05-05 13:26 47.84751 12.26314 36771 ft 435 kts 144°
2026-05-05 13:26 47.80121 12.32111 36774 ft 435 kts 144°
2026-05-05 13:27 47.75487 12.37899 36767 ft 435 kts 143°
2026-05-05 13:27 47.70835 12.43681 36781 ft 436 kts 144°
2026-05-05 13:28 47.66184 12.49456 36784 ft 436 kts 144°
2026-05-05 13:28 47.61639 12.55432 36794 ft 440 kts 136°
2026-05-05 13:29 47.57483 12.62097 36791 ft 440 kts 136°
2026-05-05 13:29 47.53320 12.68738 36774 ft 441 kts 136°
2026-05-05 13:30 47.49163 12.75340 36772 ft 441 kts 137°
2026-05-05 13:30 47.44972 12.82004 36786 ft 443 kts 136°
2026-05-05 13:31 47.40768 12.88672 36815 ft 444 kts 137°
2026-05-05 13:31 47.36551 12.95324 36825 ft 444 kts 137°
2026-05-05 13:32 47.32337 13.01963 36816 ft 443 kts 137°
2026-05-05 13:32 47.28116 13.08600 36865 ft 444 kts 137°
2026-05-05 13:33 47.23888 13.15237 36851 ft 444 kts 137°
2026-05-05 13:33 47.19651 13.21851 36875 ft 444 kts 137°
2026-05-05 13:34 47.15413 13.28458 36859 ft 444 kts 137°
2026-05-05 13:34 47.11167 13.35073 36869 ft 445 kts 137°
2026-05-05 13:35 47.06916 13.41676 36893 ft 445 kts 137°
2026-05-05 13:35 47.02647 13.48271 36906 ft 446 kts 137°
2026-05-05 13:36 46.98372 13.54862 36926 ft 446 kts 137°
2026-05-05 13:36 46.94099 13.61445 36930 ft 446 kts 137°
2026-05-05 13:37 46.89823 13.68017 36918 ft 446 kts 137°
2026-05-05 13:37 46.86264 13.73471 36927 ft 446 kts 137°
2026-05-05 13:38 46.81972 13.80028 36930 ft 447 kts 137°
2026-05-05 13:38 46.77683 13.86584 36933 ft 447 kts 137°
2026-05-05 13:39 46.73383 13.93123 36922 ft 447 kts 137°
2026-05-05 13:39 46.69072 13.99662 36925 ft 448 kts 137°
2026-05-05 13:40 46.64756 14.06202 36925 ft 448 kts 137°
2026-05-05 13:40 46.60429 14.12742 36957 ft 448 kts 137°
2026-05-05 13:41 46.56101 14.19273 36966 ft 448 kts 137°
2026-05-05 13:41 46.51770 14.25792 36946 ft 448 kts 137°
2026-05-05 13:42 46.47432 14.32299 36951 ft 449 kts 137°
2026-05-05 13:42 46.43080 14.38811 36949 ft 450 kts 137°
2026-05-05 13:43 46.38715 14.45320 36997 ft 450 kts 137°
2026-05-05 13:43 46.34344 14.51827 37012 ft 451 kts 137°
2026-05-05 13:44 46.29974 14.58319 37003 ft 450 kts 137°
2026-05-05 13:44 46.25593 14.64816 37006 ft 451 kts 139°
2026-05-05 13:45 46.21205 14.71303 36995 ft 451 kts 137°
2026-05-05 13:45 46.16816 14.77776 37001 ft 451 kts 137°
2026-05-05 13:46 46.12421 14.84236 36992 ft 451 kts 137°
2026-05-05 13:46 46.08027 14.90683 36978 ft 451 kts 137°
2026-05-05 13:47 46.03631 14.97127 36980 ft 451 kts 137°
2026-05-05 13:47 45.99231 15.03543 36984 ft 451 kts 137°
2026-05-05 13:48 45.94825 15.09949 36986 ft 451 kts 137°
2026-05-05 13:48 45.90420 15.16354 36978 ft 451 kts 137°
2026-05-05 13:49 45.86013 15.22758 36993 ft 451 kts 137°
2026-05-05 13:49 45.81596 15.29148 36992 ft 451 kts 137°
2026-05-05 13:50 45.77203 15.35481 36997 ft 451 kts 137°
2026-05-05 13:50 45.72872 15.42002 36996 ft 452 kts 135°
2026-05-05 13:51 45.68643 15.48666 36995 ft 452 kts 135°
2026-05-05 13:51 45.64416 15.55315 36989 ft 452 kts 135°
2026-05-05 13:52 45.60145 15.61910 36985 ft 452 kts 136°
2026-05-05 13:52 45.55855 15.68464 36992 ft 452 kts 136°
2026-05-05 13:53 45.51567 15.75019 36985 ft 452 kts 135°
2026-05-05 13:53 45.47286 15.81580 36985 ft 452 kts 135°
2026-05-05 13:54 45.43004 15.88133 36974 ft 452 kts 136°
2026-05-05 13:54 45.38707 15.94683 36976 ft 452 kts 136°
2026-05-05 13:55 45.34408 16.01218 36985 ft 453 kts 136°
2026-05-05 13:55 45.30099 16.07743 36981 ft 453 kts 136°
2026-05-05 13:56 45.25787 16.14254 36987 ft 452 kts 136°
2026-05-05 13:56 45.21475 16.20757 36996 ft 452 kts 136°
2026-05-05 13:57 45.17159 16.27256 36983 ft 453 kts 136°
2026-05-05 13:57 45.12840 16.33744 36981 ft 453 kts 136°
2026-05-05 13:58 45.08508 16.40226 36992 ft 453 kts 136°
2026-05-05 13:58 45.04174 16.46698 36989 ft 453 kts 136°
2026-05-05 13:59 44.97665 16.56385 36990 ft 453 kts 136°
2026-05-05 14:00 44.91861 16.65022 36980 ft 453 kts 136°
2026-05-05 14:00 44.86803 16.72506 36981 ft 454 kts 136°
2026-05-05 14:01 44.82439 16.78936 36991 ft 454 kts 136°
2026-05-05 14:01 44.78074 16.85370 36987 ft 454 kts 136°
2026-05-05 14:02 44.73676 16.91835 36987 ft 454 kts 136°
2026-05-05 14:02 44.69149 16.98005 36981 ft 452 kts 142°
2026-05-05 14:03 44.64362 17.03743 36989 ft 452 kts 142°
2026-05-05 14:03 44.59571 17.09461 36991 ft 452 kts 142°
2026-05-05 14:04 44.54776 17.15181 36998 ft 453 kts 143°
2026-05-05 14:04 44.49977 17.20902 36996 ft 453 kts 142°
2026-05-05 14:05 44.45165 17.26615 36990 ft 453 kts 143°
2026-05-05 14:05 44.40344 17.32318 36990 ft 454 kts 143°
2026-05-05 14:06 44.35552 17.37986 37006 ft 455 kts 143°
2026-05-05 14:06 44.30721 17.43696 37009 ft 455 kts 142°
2026-05-05 14:07 44.25881 17.49393 37011 ft 456 kts 142°
2026-05-05 14:07 44.21024 17.55093 36996 ft 457 kts 143°
2026-05-05 14:08 44.16160 17.60785 37011 ft 457 kts 143°
2026-05-05 14:08 44.11285 17.66485 37015 ft 458 kts 143°
2026-05-05 14:09 44.06506 17.72376 37021 ft 460 kts 140°
2026-05-05 14:09 44.01829 17.78448 37017 ft 461 kts 140°
2026-05-05 14:10 43.97137 17.84510 37019 ft 461 kts 140°
2026-05-05 14:10 43.92398 17.90505 37016 ft 461 kts 141°
2026-05-05 14:11 43.87637 17.96473 37016 ft 462 kts 140°
2026-05-05 14:11 43.82871 18.02461 37020 ft 463 kts 140°
2026-05-05 14:12 43.78105 18.08453 37021 ft 463 kts 140°
2026-05-05 14:12 43.73333 18.14447 37028 ft 463 kts 140°
2026-05-05 14:13 43.68549 18.20415 37022 ft 463 kts 141°
2026-05-05 14:13 43.63761 18.26370 37028 ft 463 kts 141°
2026-05-05 14:14 43.58974 18.32327 37050 ft 464 kts 141°
2026-05-05 14:14 43.54179 18.38283 37056 ft 464 kts 141°
2026-05-05 14:15 43.49379 18.44235 37056 ft 464 kts 141°
2026-05-05 14:15 43.44567 18.50182 37049 ft 465 kts 141°
2026-05-05 14:16 43.39748 18.56134 37054 ft 466 kts 141°
2026-05-05 14:16 43.34913 18.62078 37055 ft 467 kts 141°
2026-05-05 14:17 43.30069 18.68015 37058 ft 467 kts 141°
2026-05-05 14:17 43.25226 18.73947 37061 ft 467 kts 141°
2026-05-05 14:18 43.20377 18.79867 37053 ft 466 kts 141°
2026-05-05 14:18 43.15528 18.85775 37059 ft 467 kts 141°
2026-05-05 14:19 43.10681 18.91685 37062 ft 467 kts 141°
2026-05-05 14:19 43.05823 18.97578 37062 ft 467 kts 141°
2026-05-05 14:20 43.01748 19.02509 37062 ft 467 kts 141°
2026-05-05 14:20 42.96909 19.08361 37066 ft 468 kts 141°
2026-05-05 14:21 42.92029 19.14248 37066 ft 468 kts 141°
2026-05-05 14:21 42.87143 19.20137 37070 ft 469 kts 141°
2026-05-05 14:22 42.82245 19.26023 37071 ft 470 kts 141°
2026-05-05 14:22 42.77334 19.31907 37084 ft 470 kts 141°
2026-05-05 14:23 42.72413 19.37789 37073 ft 471 kts 141°
2026-05-05 14:23 42.67489 19.43670 37078 ft 471 kts 141°
2026-05-05 14:24 42.62551 19.49546 37080 ft 472 kts 141°
2026-05-05 14:24 42.57605 19.55418 37083 ft 472 kts 141°
2026-05-05 14:25 42.52646 19.61273 37084 ft 473 kts 141°
2026-05-05 14:25 42.47566 19.66932 37073 ft 473 kts 144°
2026-05-05 14:26 42.42393 19.72441 37072 ft 474 kts 144°
2026-05-05 14:26 42.37227 19.77951 37076 ft 473 kts 144°
2026-05-05 14:27 42.32078 19.83525 37072 ft 475 kts 143°
2026-05-05 14:27 42.26927 19.89123 37062 ft 476 kts 144°
2026-05-05 14:28 42.21758 19.94718 37059 ft 477 kts 144°
2026-05-05 14:28 42.16567 20.00296 37062 ft 478 kts 144°
2026-05-05 14:29 42.11356 20.05876 37068 ft 478 kts 144°
2026-05-05 14:29 42.06149 20.11453 37070 ft 479 kts 144°
2026-05-05 14:30 42.00928 20.17033 37065 ft 479 kts 144°
2026-05-05 14:30 41.95695 20.22616 37060 ft 481 kts 144°
2026-05-05 14:31 41.90445 20.28200 37061 ft 482 kts 144°
2026-05-05 14:31 41.85183 20.33777 37064 ft 482 kts 144°
2026-05-05 14:32 41.79913 20.39363 37066 ft 483 kts 144°
2026-05-05 14:32 41.74638 20.44944 37056 ft 484 kts 144°
2026-05-05 14:33 41.69350 20.50519 37055 ft 484 kts 144°
2026-05-05 14:33 41.64050 20.56095 37051 ft 485 kts 144°
2026-05-05 14:34 41.58759 20.61691 37044 ft 485 kts 144°
2026-05-05 14:34 41.53462 20.67296 37049 ft 486 kts 144°
2026-05-05 14:35 41.48149 20.72890 37045 ft 487 kts 144°
2026-05-05 14:35 41.42831 20.78476 37048 ft 487 kts 144°
2026-05-05 14:36 41.37499 20.84065 37062 ft 488 kts 144°
2026-05-05 14:36 41.32152 20.89650 37068 ft 489 kts 144°
2026-05-05 14:37 41.26798 20.95230 37055 ft 489 kts 144°
2026-05-05 14:37 41.21443 21.00812 37052 ft 489 kts 144°
2026-05-05 14:38 41.16078 21.06379 37052 ft 490 kts 144°
2026-05-05 14:38 41.10738 21.11913 37054 ft 490 kts 144°
2026-05-05 14:39 41.05355 21.17478 37053 ft 491 kts 144°
2026-05-05 14:39 40.99926 21.23077 37039 ft 491 kts 144°
2026-05-05 14:40 40.94569 21.28601 37041 ft 492 kts 144°
2026-05-05 14:40 40.89167 21.34161 37040 ft 492 kts 143°
2026-05-05 14:41 40.84207 21.40417 37049 ft 494 kts 134°
2026-05-05 14:41 40.79455 21.46986 37059 ft 495 kts 134°
2026-05-05 14:42 40.74702 21.53549 37062 ft 495 kts 134°
2026-05-05 14:42 40.69940 21.60088 37062 ft 495 kts 134°
2026-05-05 14:43 40.65169 21.66622 37067 ft 495 kts 135°
2026-05-05 14:43 40.60400 21.73147 37068 ft 494 kts 135°
2026-05-05 14:44 40.55628 21.79668 37080 ft 494 kts 134°
2026-05-05 14:44 40.50854 21.86169 37075 ft 494 kts 134°
2026-05-05 14:45 40.46075 21.92663 37062 ft 495 kts 135°
2026-05-05 14:45 40.41279 21.99159 37062 ft 496 kts 134°
2026-05-05 14:46 40.36477 22.05651 37069 ft 496 kts 134°
2026-05-05 14:46 40.31668 22.12146 37061 ft 496 kts 135°
2026-05-05 14:47 40.26856 22.18629 37075 ft 496 kts 134°
2026-05-05 14:47 40.22057 22.25096 37056 ft 495 kts 134°
2026-05-05 14:48 40.17253 22.31541 37040 ft 495 kts 134°
2026-05-05 14:48 40.12446 22.37987 37044 ft 495 kts 134°
2026-05-05 14:49 40.07631 22.44428 37039 ft 495 kts 134°
2026-05-05 14:49 40.02808 22.50840 37043 ft 494 kts 134°
2026-05-05 14:50 39.97985 22.57241 37053 ft 495 kts 134°
2026-05-05 14:50 39.93168 22.63628 37039 ft 494 kts 134°
2026-05-05 14:51 39.88355 22.70011 37035 ft 494 kts 134°
2026-05-05 14:51 39.83534 22.76393 37031 ft 494 kts 134°
2026-05-05 14:52 39.78708 22.82755 37041 ft 494 kts 134°
2026-05-05 14:52 39.73876 22.89106 37035 ft 494 kts 134°
2026-05-05 14:53 39.69039 22.95453 37039 ft 494 kts 134°
2026-05-05 14:53 39.64204 23.01796 37037 ft 494 kts 134°
2026-05-05 14:54 39.59364 23.08122 37033 ft 494 kts 134°
2026-05-05 14:54 39.54521 23.14437 37047 ft 494 kts 134°
2026-05-05 14:55 39.49682 23.20736 37050 ft 493 kts 134°
2026-05-05 14:55 39.44838 23.27033 37045 ft 493 kts 134°
2026-05-05 14:56 39.39991 23.33317 37043 ft 493 kts 134°
2026-05-05 14:56 39.35148 23.39593 37045 ft 493 kts 134°
2026-05-05 14:57 39.30295 23.45863 37050 ft 494 kts 134°
2026-05-05 14:57 39.25435 23.52126 37044 ft 494 kts 134°
2026-05-05 14:58 39.20574 23.58377 37043 ft 494 kts 134°
2026-05-05 14:58 39.15388 23.64161 37042 ft 493 kts 144°
2026-05-05 14:59 39.09862 23.69396 37038 ft 493 kts 144°
2026-05-05 14:59 39.04328 23.74622 37024 ft 493 kts 144°
2026-05-05 15:00 38.99730 23.78961 37039 ft 493 kts 144°
2026-05-05 15:00 38.93245 23.85061 36297 ft 497 kts 144°
2026-05-05 15:01 38.90428 23.87712 34719 ft 507 kts 144°
2026-05-05 15:01 38.87602 23.90370 34093 ft 494 kts 144°
2026-05-05 15:01 38.84901 23.92908 33868 ft 472 kts 144°
2026-05-05 15:01 38.82281 23.95364 33234 ft 461 kts 144°
2026-05-05 15:02 38.79728 23.97758 32657 ft 450 kts 144°
2026-05-05 15:02 38.77200 24.00128 32075 ft 450 kts 144°
2026-05-05 15:02 38.74680 24.02485 31514 ft 448 kts 144°
2026-05-05 15:02 38.72171 24.04829 30956 ft 447 kts 143°
2026-05-05 15:03 38.70507 24.06383 30583 ft 448 kts 143°
2026-05-05 15:03 38.67985 24.08739 30001 ft 449 kts 144°
2026-05-05 15:03 38.65465 24.11093 29405 ft 448 kts 143°
2026-05-05 15:03 38.62953 24.13432 28874 ft 445 kts 143°
2026-05-05 15:04 38.60458 24.15751 28336 ft 442 kts 143°
2026-05-05 15:04 38.57981 24.18048 27823 ft 439 kts 143°
2026-05-05 15:04 38.55510 24.20336 27311 ft 437 kts 143°
2026-05-05 15:04 38.53062 24.22608 26798 ft 434 kts 143°
2026-05-05 15:05 38.48219 24.27108 25821 ft 428 kts 143°
2026-05-05 15:05 38.45813 24.29339 25320 ft 426 kts 143°
2026-05-05 15:05 38.43420 24.31553 24855 ft 424 kts 143°
2026-05-05 15:06 38.40966 24.33616 24385 ft 421 kts 149°
2026-05-05 15:06 38.38452 24.35520 23897 ft 420 kts 149°
2026-05-05 15:06 38.35945 24.37413 23354 ft 419 kts 149°
2026-05-05 15:06 38.33446 24.39299 22864 ft 416 kts 149°
2026-05-05 15:07 38.30966 24.41171 22358 ft 413 kts 149°
2026-05-05 15:07 38.28505 24.43029 21864 ft 410 kts 148°
2026-05-05 15:07 38.26060 24.44873 21363 ft 407 kts 149°
2026-05-05 15:07 38.23629 24.46704 20898 ft 405 kts 148°
2026-05-05 15:08 38.21214 24.48525 20420 ft 402 kts 148°
2026-05-05 15:08 38.18811 24.50334 19945 ft 400 kts 148°
2026-05-05 15:08 38.16421 24.52129 19475 ft 398 kts 148°
2026-05-05 15:08 38.14041 24.53915 19003 ft 396 kts 148°
2026-05-05 15:09 38.11670 24.55695 18536 ft 395 kts 148°
2026-05-05 15:09 38.09311 24.57465 18040 ft 393 kts 148°
2026-05-05 15:09 38.06964 24.59224 17578 ft 389 kts 148°
2026-05-05 15:09 38.04643 24.60960 17127 ft 386 kts 148°
2026-05-05 15:10 38.02340 24.62682 16681 ft 382 kts 148°
2026-05-05 15:10 38.00062 24.64387 16235 ft 379 kts 147°
2026-05-05 15:10 37.97799 24.66080 15800 ft 376 kts 147°
2026-05-05 15:10 37.95556 24.67755 15372 ft 373 kts 147°
2026-05-05 15:11 37.93329 24.69418 14945 ft 370 kts 147°
2026-05-05 15:11 37.91118 24.71063 14560 ft 366 kts 148°
2026-05-05 15:11 37.88954 24.72672 14181 ft 363 kts 148°
2026-05-05 15:11 37.86749 24.74312 13747 ft 361 kts 147°
2026-05-05 15:12 37.84593 24.75917 13255 ft 359 kts 147°
2026-05-05 15:12 37.82483 24.77489 12811 ft 356 kts 148°
2026-05-05 15:12 37.80356 24.79071 12386 ft 352 kts 148°
2026-05-05 15:12 37.78250 24.80636 11923 ft 350 kts 148°
2026-05-05 15:13 37.76172 24.82180 11691 ft 341 kts 148°
2026-05-05 15:13 37.74158 24.83672 11565 ft 330 kts 148°
2026-05-05 15:13 37.72205 24.85117 11335 ft 322 kts 148°
2026-05-05 15:13 37.70280 24.86544 11003 ft 319 kts 148°
2026-05-05 15:14 37.68370 24.87960 10652 ft 318 kts 148°
2026-05-05 15:14 37.66471 24.89367 10299 ft 316 kts 148°
2026-05-05 15:14 37.64581 24.90766 9937 ft 314 kts 148°
2026-05-05 15:14 37.62701 24.92156 9538 ft 312 kts 148°
2026-05-05 15:15 37.60831 24.93538 9140 ft 311 kts 148°
2026-05-05 15:15 37.58971 24.94910 8732 ft 309 kts 148°
2026-05-05 15:15 37.57121 24.96274 8329 ft 307 kts 148°
2026-05-05 15:15 37.55279 24.97632 7918 ft 306 kts 148°
2026-05-05 15:16 37.53453 24.98978 7628 ft 300 kts 149°
2026-05-05 15:16 37.51702 25.00265 7365 ft 285 kts 149°
2026-05-05 15:16 37.50009 25.01511 6833 ft 280 kts 147°
2026-05-05 15:16 37.48533 25.03057 6123 ft 276 kts 127°
2026-05-05 15:17 37.47646 25.05160 5619 ft 271 kts 101°
2026-05-05 15:17 37.47476 25.07538 5471 ft 273 kts 78°
2026-05-05 15:17 37.47969 25.09749 5318 ft 255 kts 65°
2026-05-05 15:17 37.48567 25.11802 5163 ft 244 kts 64°
2026-05-05 15:18 37.49147 25.13765 5009 ft 234 kts 64°
2026-05-05 15:18 37.49706 25.15647 4862 ft 225 kts 64°
2026-05-05 15:18 37.50245 25.17467 4702 ft 220 kts 64°
2026-05-05 15:18 37.50779 25.19268 4543 ft 219 kts 64°
2026-05-05 15:19 37.51311 25.21063 4259 ft 218 kts 65°
2026-05-05 15:19 37.51847 25.22862 3910 ft 221 kts 66°
2026-05-05 15:19 37.52381 25.24662 3556 ft 217 kts 68°
2026-05-05 15:19 37.52555 25.26503 3234 ft 210 kts 97°
2026-05-05 15:20 37.51997 25.28151 2876 ft 203 kts 127°
2026-05-05 15:20 37.51009 25.29365 2521 ft 196 kts 146°
2026-05-05 15:20 37.49898 25.30321 2159 ft 192 kts 147°
2026-05-05 15:20 37.48793 25.31271 1702 ft 193 kts 147°
2026-05-05 15:21 37.47688 25.32221 1280 ft 188 kts 147°
2026-05-05 15:21 37.46657 25.33109 986 ft 172 kts 147°
2026-05-05 15:21 37.45690 25.33885 754 ft 157 kts 156°
2026-05-05 15:21 37.44679 25.34317 518 ft 150 kts 161°
2026-05-05 15:22 37.43717 25.34735 409 ft 137 kts 160°
2026-05-05 15:22 37.43041 25.35036 406 ft 57 kts 161°
2026-05-05 15:22 37.42814 25.35137 405 ft 17 kts 149°
2026-05-05 15:22 37.42742 25.35168 407 ft 6 kts 268°
2026-05-05 15:23 37.42796 25.35140 407 ft 17 kts 342°
2026-05-05 15:23 37.42930 25.35085 406 ft 22 kts 342°
2026-05-05 15:23 37.43081 25.35016 406 ft 24 kts 335°
2026-05-05 15:23 37.43250 25.34940 405 ft 27 kts 341°
2026-05-05 15:24 37.43390 25.34856 405 ft 18 kts 308°
2026-05-05 15:24 37.43433 25.34709 407 ft 12 kts 259°
2026-05-05 15:24 37.43425 25.34675 407 ft 0 kts 250°